CW8733 Weather Reports


Display with metric or nautical units.
time (UTC)temp
F
wind
direction
speed
MPH
gust
MPH
rain 1hr
in
rain 24hr
in
rain mn
in
humidity
%
barometer
mb
20260901173516 87 203 2.0 6.0 0.00 0.19 0.00 45 1028.9
20260901172516 86 90 1.0 5.0 0.00 0.19 0.00 46 1028.8
20260901171517 85 248 4.0 8.0 0.00 0.19 0.00 46 1028.9
20260901170516 85 203 2.0 5.0 0.00 0.19 0.00 48 1029.0
20260901165516 85 225 1.0 2.0 0.00 0.19 0.00 49 1029.0
20260901164516 84 90 2.0 5.0 0.00 0.19 0.00 52 1028.9
20260901163516 84 293 2.0 4.0 0.00 0.19 0.00 54 1029.0
20260901162516 83 225 1.0 3.0 0.00 0.19 0.00 52 1028.9
20260901161516 82 0.0 3.0 0.00 0.19 0.00 56 1028.8
20260901160516 82 0.0 0.0 0.00 0.19 0.00 59 1028.8
20260901155516 81 0.0 0.0 0.00 0.19 0.00 61 1028.8
20260901154516 80 0.0 1.0 0.00 0.19 0.00 64 1028.8
20260901153516 79 113 1.0 2.0 0.00 0.19 0.00 66 1028.8
20260901152516 77 180 1.0 3.0 0.00 0.19 0.00 73 1028.7
20260901151536 76 203 1.0 3.0 0.00 0.19 0.00 78 1028.5
20260901150516 75 0.0 0.0 0.00 0.19 0.00 81 1028.5
20260901145516 73 0.0 0.0 0.00 0.19 0.00 86 1028.3
20260901144516 72 0.0 0.0 0.00 0.19 0.00 89 1028.1
20260901143516 70 0.0 0.0 0.00 0.19 0.00 90 1028.1
20260901142516 69 0.0 0.0 0.00 0.19 0.00 92 1027.9
20260901141516 68 0.0 0.0 0.00 0.19 0.00 93 1027.7
20260901140556 67 0.0 0.0 0.00 0.20 0.00 93 1027.5
20260901135516 66 0.0 0.0 0.00 0.20 0.00 93 1027.5
20260901134536 66 0.0 0.0 0.00 0.20 0.00 93 1027.4
20260901133516 65 0.0 0.0 0.00 0.20 0.00 93 1027.4
20260901132516 65 0.0 0.0 0.00 0.20 0.00 92 1027.2
20260901131516 65 0.0 0.0 0.00 0.20 0.00 92 1026.9
20260901130516 65 0.0 0.0 0.00 0.20 0.00 92 1026.9
20260901125516 65 0.0 0.0 0.00 0.20 0.00 92 1026.7
20260901124516 66 0.0 0.0 0.00 0.20 0.00 92 1026.7
20260901123516 66 0.0 0.0 0.00 0.20 0.00 92 1026.6
20260901122516 66 0.0 0.0 0.00 0.24 0.00 92 1026.6
20260901121536 66 0.0 0.0 0.00 0.27 0.00 92 1026.5
20260901120516 66 0.0 0.0 0.00 0.27 0.00 92 1026.4
20260901115536 66 0.0 0.0 0.00 0.27 0.00 91 1026.4
20260901114516 66 0.0 0.0 0.00 0.27 0.00 91 1026.4
20260901113516 66 0.0 0.0 0.00 0.27 0.00 91 1026.3
20260901112516 66 0.0 0.0 0.00 0.27 0.00 91 1026.2
20260901111516 66 0.0 0.0 0.00 0.27 0.00 91 1026.1
20260901110536 66 0.0 0.0 0.00 0.27 0.00 91 1026.0
20260901105516 66 45 1.0 2.0 0.00 0.27 0.00 91 1025.9
20260901104536 66 45 2.0 4.0 0.00 0.27 0.00 91 1025.9
20260901103516 67 68 2.0 3.0 0.00 0.27 0.00 91 1025.6
20260901102516 67 0.0 0.0 0.00 0.27 0.00 91 1025.5
20260901101516 67 0.0 0.0 0.00 0.27 0.00 91 1025.4
20260901100516 67 0.0 0.0 0.00 0.27 0.00 90 1025.2
20260901095516 67 0.0 0.0 0.00 0.27 0.00 91 1025.1
20260901094516 67 0.0 0.0 0.00 0.27 0.00 90 1025.1
20260901093516 67 0.0 0.0 0.00 0.27 0.00 90 1025.1
20260901092516 67 0.0 0.0 0.00 0.27 0.00 90 1025.1
20260901091516 67 0.0 0.0 0.00 0.27 0.00 90 1025.1
20260901090536 68 0.0 0.0 0.00 0.27 0.00 90 1025.2
20260901085516 68 0.0 0.0 0.00 0.27 0.00 89 1025.1
20260901084536 68 0.0 0.0 0.00 0.27 0.00 89 1025.1
20260901083536 68 0.0 0.0 0.00 0.27 0.00 88 1025.4
20260901082516 68 0.0 0.0 0.00 0.27 0.00 88 1025.3
20260901081516 68 0.0 0.0 0.00 0.27 0.00 87 1025.2
20260901080516 69 0.0 0.0 0.00 0.27 0.00 87 1025.2
20260901075536 69 0.0 0.0 0.00 0.27 0.00 87 1025.2
20260901074516 68 45 2.0 4.0 0.00 0.27 0.00 87 1025.2
20260901073536 68 68 3.0 4.0 0.00 0.27 0.00 87 1025.4
20260901072516 68 68 1.0 4.0 0.00 0.27 0.00 88 1025.5
20260901071516 69 0.0 0.0 0.00 0.27 0.00 88 1025.5
20260901070516 69 0.0 0.0 0.00 0.27 0.00 88 1025.7
20260901065556 69 0.0 0.0 0.00 0.27 0.27 87 1025.7
20260901064516 69 0.0 0.0 0.00 0.27 0.27 87 1025.7
20260901063516 69 0.0 0.0 0.00 0.27 0.27 86 1026.1
20260901062536 70 0.0 0.0 0.00 0.27 0.27 86 1026.1
20260901061515 70 0.0 0.0 0.00 0.27 0.27 85 1026.2
20260901060516 70 0.0 2.0 0.00 0.27 0.27 85 1026.1
20260901055536 70 0.0 2.0 0.00 0.27 0.27 84 1026.1
20260901054516 71 0.0 3.0 0.00 0.27 0.27 84 1026.1
20260901053516 71 0.0 0.0 0.00 0.27 0.27 83 1026.1
20260901052515 71 0.0 0.0 0.00 0.27 0.27 82 1026.0
20260901051515 72 0.0 0.0 0.00 0.27 0.27 81 1026.3
20260901050515 72 0.0 0.0 0.00 0.27 0.27 79 1026.4
20260901045535 73 0.0 0.0 0.00 0.27 0.27 78 1026.6
20260901044556 74 270 2.0 3.0 0.00 0.27 0.27 75 1026.7
20260901043516 74 0.0 0.0 0.00 0.27 0.27 73 1026.8
20260901042535 74 45 3.0 4.0 0.00 0.27 0.27 73 1026.7
20260901041516 74 45 4.0 7.0 0.00 0.27 0.27 73 1026.8
20260901040516 75 45 4.0 6.0 0.00 0.27 0.27 74 1026.6
20260901035516 75 0 3.0 4.0 0.00 0.27 0.27 73 1026.3
20260901034515 75 45 1.0 4.0 0.00 0.27 0.27 72 1026.3
20260901033536 75 45 3.0 5.0 0.00 0.27 0.27 71 1026.2
20260901032515 75 338 1.0 4.0 0.00 0.27 0.27 72 1026.1
20260901031556 75 0.0 0.0 0.00 0.27 0.27 73 1025.9
20260901030516 75 0.0 2.0 0.00 0.27 0.27 73 1025.6
20260901025515 76 68 1.0 3.0 0.00 0.27 0.27 70 1025.5
20260901024556 76 0.0 2.0 0.00 0.27 0.27 69 1025.4
20260901023515 76 68 5.0 10.0 0.00 0.27 0.27 70 1024.9
20260901022556 75 45 4.0 7.0 0.00 0.27 0.27 72 1024.9
20260901021515 76 68 1.0 3.0 0.00 0.27 0.27 72 1024.7
20260901020516 76 0.0 0.0 0.00 0.27 0.27 73 1024.3
20260901015516 76 0.0 0.0 0.00 0.27 0.27 71 1024.1
20260901014516 77 45 2.0 3.0 0.00 0.27 0.27 70 1023.9
20260901013536 77 0 1.0 2.0 0.00 0.27 0.27 70 1023.8
20260901012516 78 0.0 0.0 0.00 0.27 0.27 68 1023.7
20260901011516 78 0.0 0.0 0.00 0.27 0.27 65 1023.6
20260901010536 78 248 1.0 3.0 0.00 0.27 0.27 64 1023.6
20260901005536 79 293 1.0 2.0 0.00 0.27 0.27 63 1023.4
20260901004555 79 248 3.0 4.0 0.00 0.27 0.27 61 1023.5
20260901003515 80 248 2.0 3.0 0.00 0.27 0.27 59 1024.0
20260901002515 81 225 2.0 4.0 0.00 0.27 0.27 58 1023.8
20260901001515 81 225 3.0 6.0 0.00 0.27 0.27 57 1024.0
20260901000535 81 203 6.0 10.0 0.00 0.27 0.27 56 1024.5
20260831235515 81 203 3.0 5.0 0.00 0.27 0.27 60 1024.4
20260831234518 80 90 3.0 7.0 0.00 0.27 0.27 59 1024.2
20260831233517 79 68 6.0 10.0 0.00 0.27 0.27 62 1024.1
20260831232517 78 68 10.0 15.0 0.00 0.27 0.27 63 1024.1
20260831231538 77 68 12.0 19.0 0.00 0.27 0.27 65 1024.1
20260831230517 76 68 11.0 17.0 0.00 0.27 0.27 67 1024.1
20260831225518 75 68 13.0 20.0 0.00 0.27 0.27 67 1024.2
20260831224517 75 45 12.0 21.0 0.00 0.27 0.27 69 1024.2
20260831223517 74 68 13.0 21.0 0.00 0.27 0.27 71 1024.2
20260831222518 73 68 9.0 14.0 0.00 0.27 0.27 74 1024.3
20260831221517 73 68 13.0 25.0 0.00 0.27 0.27 75 1024.6
20260831220517 72 45 13.0 17.0 0.00 0.27 0.27 79 1024.8
20260831215517 71 45 13.0 22.0 0.02 0.27 0.27 82 1024.9
20260831214518 70 45 12.0 22.0 0.02 0.27 0.27 82 1024.9
20260831213517 70 68 15.0 23.0 0.04 0.27 0.27 83 1025.1
20260831212517 69 45 18.0 32.0 0.05 0.27 0.27 82 1025.0
20260831211517 69 68 18.0 29.0 0.06 0.27 0.27 84 1025.0
20260831210517 69 45 19.0 29.0 0.08 0.27 0.27 85 1025.9
20260831205518 69 45 11.0 18.0 0.13 0.25 0.25 87 1026.9
20260831204517 69 45 5.0 7.0 0.16 0.25 0.25 86 1027.4
20260831203517 69 90 8.0 14.0 0.14 0.23 0.23 84 1027.6
20260831202517 70 90 6.0 11.0 0.13 0.22 0.22 87 1027.9
20260831201537 70 68 4.0 6.0 0.12 0.21 0.21 87 1028.4
20260831200517 70 0.0 0.0 0.11 0.19 0.19 85 1028.8
20260831195537 71 0.0 3.0 0.04 0.12 0.12 84 1029.0
20260831194517 71 113 5.0 10.0 0.01 0.09 0.09 83 1028.9
20260831193517 71 135 8.0 10.0 0.01 0.09 0.09 82 1029.4
20260831192517 72 135 9.0 15.0 0.01 0.09 0.09 83 1029.1
20260831191517 72 180 2.0 5.0 0.01 0.09 0.09 82 1029.2
20260831190517 72 90 2.0 5.0 0.00 0.08 0.08 80 1029.1
20260831185517 72 68 6.0 10.0 0.00 0.08 0.08 78 1028.8
20260831184517 73 90 4.0 6.0 0.00 0.08 0.08 76 1029.1
20260831183517 73 225 4.0 13.0 0.00 0.08 0.08 73 1028.7
20260831182517 75 203 9.0 15.0 0.00 0.08 0.08 69 1029.0
20260831181517 77 203 8.0 14.0 0.00 0.08 0.08 66 1028.3
20260831180517 77 203 5.0 10.0 0.00 0.08 0.08 63 1028.0
20260831175517 77 225 2.0 5.0 0.00 0.08 0.08 63 1028.3
20260831174537 77 203 3.0 7.0 0.00 0.08 0.08 64 1028.2